#timestamp,LO_Frequency,Hit,StdDev 
1661652015.8,286046999.2,N
1661652035.7,286046999.6,N
1661652055.5,286046999.2,N
1661652075.4,286046998.9,N
1661652095.2,286046999.3,N
1661652115.0,286046998.3,N
1661652115.9,286046998.3,N
1661652135.8,286046998.8,N
1661652155.6,286046998.3,N
1661652175.4,286046998.5,N
1661652195.3,286046999.0,N
1661652215.1,286046998.6,N
1661652235.9,286046998.8,N
1661652255.7,286047001.0,N
1661652275.5,286046998.8,N
1661652295.4,286046998.8,N
1661652315.2,286046999.3,N
1661652335.0,286046998.2,N
1661652335.9,286046998.2,N
1661652355.8,286046998.6,N
1661652375.6,286046998.8,N
1661652395.5,286046999.3,N
1661652415.3,286046999.0,N
1661652435.1,286046998.3,Y
1661652455.9,286047000.5,P
1661652475.7,286047000.5,N
1661652495.5,286047000.6,N
1661652515.4,286047000.8,N
1661652535.2,286047000.9,N
1661652555.1,286047000.8,N
1661652556.0,286047000.8,N
1661652575.8,286047000.8,N
1661652595.6,286047001.0,N
1661652615.5,286047000.4,N
1661652635.3,286047000.9,N
1661652655.1,286047000.7,N
1661652675.9,286047000.5,N
1661652695.7,286047001.0,N
1661652715.6,286047001.1,N
1661652735.4,286046998.6,N
1661652755.2,286046998.4,N
1661652775.1,286046998.7,N
1661652776.0,286046998.7,N
1661652795.8,286046996.6,Y
1661652815.7,286046997.0,P
1661652835.5,286046999.5,N
1661652855.3,286046997.3,N
1661652875.2,286046995.1,Y
1661652895.0,286046996.8,P
1661652895.9,286046996.8,P
1661652915.7,286046996.5,P
1661652935.6,286046996.5,Y
1661652955.4,286047000.0,P
1661652975.3,286047002.3,N
1661652995.1,286047002.5,N
1661653015.8,286047002.7,N
1661653035.7,286047002.3,N
1661653055.5,286047001.5,N
1661653075.4,286047002.8,N
1661653095.2,286047002.5,N
1661653115.0,286047002.7,N
1661653115.9,286047002.7,N
1661653135.8,286047002.8,N
1661653155.6,286047002.7,N
1661653175.4,286047000.9,N
1661653195.3,286047000.4,N
1661653215.1,286047000.8,N
1661653235.9,286047000.4,N
1661653255.7,286047000.8,N
1661653275.5,286047000.8,N
1661653295.4,286046998.5,N
1661653315.2,286046999.7,N
1661653335.0,286047000.1,N
1661653335.9,286047000.1,N
1661653355.8,286046999.8,N
1661653375.6,286046999.7,N
1661653395.5,286047001.5,N
1661653415.3,286047002.0,N
1661653435.1,286047004.3,N
1661653455.9,286047002.0,N
1661653475.7,286047001.7,N
1661653495.6,286047004.4,N
1661653515.4,286047003.7,N
1661653535.2,286047001.3,N
1661653555.1,286047001.3,N
1661653556.0,286047001.3,N
1661653575.8,286047003.5,N
1661653595.6,286047003.6,N
1661653615.5,286047003.4,N
1661653635.3,286047003.5,N
1661653655.2,286047003.7,N
1661653675.9,286047003.2,N
1661653695.7,286047003.4,N
1661653715.6,286047006.0,Y
1661653735.4,286047004.1,P
1661653755.2,286047001.9,N
1661653775.1,286047002.1,N
1661653776.0,286047002.1,N
1661653795.8,286047002.7,Y
1661653815.7,286047001.1,P
1661653835.5,286047001.2,N
1661653855.3,286046998.4,N
1661653875.2,286047000.5,N
1661653895.0,286046999.7,N
1661653895.9,286046999.7,N
1661653915.8,286047000.0,N
1661653935.6,286046999.9,N
1661653955.4,286047000.5,N
1661653975.3,286047002.5,N
1661653995.1,286047002.0,N
1661654015.8,286047000.0,N
1661654035.7,286046999.7,N
1661654055.5,286047002.2,N
1661654075.4,286047002.3,N
1661654095.2,286047002.3,N
1661654115.0,286047002.5,N
1661654115.9,286047002.5,N
1661654135.8,286047002.7,N
1661654155.6,286046999.7,N
1661654175.5,286046999.7,N
1661654195.3,286047004.0,Y
1661654215.1,286047000.1,P
1661654235.9,286047000.2,N
1661654255.7,286047001.9,P
1661654275.6,286047001.5,N
1661654295.4,286047004.3,Y
1661654315.2,286047002.7,P
1661654335.1,286047000.1,N
1661654336.0,286047000.1,N
1661654355.8,286046999.7,N
1661654375.7,286046999.8,N
1661654395.5,286047002.1,N
1661654415.3,286047003.7,Y
1661654435.2,286047002.2,P
1661654455.0,286047002.2,P
1661654455.9,286047002.2,P
1661654475.7,286047000.0,N
1661654495.6,286047000.1,N
1661654515.4,286047002.7,N
1661654535.3,286046999.9,N
1661654555.1,286047000.3,N
1661654575.9,286047002.2,N
1661654595.7,286046999.7,N
1661654615.5,286047000.1,N
1661654635.4,286047002.7,N
1661654655.2,286047002.0,N
1661654675.0,286047001.7,N
1661654675.9,286047001.7,N
1661654695.8,286047001.3,N
1661654715.6,286047004.0,Y
1661654735.5,286047002.7,P
1661654755.3,286047002.3,P
1661654775.1,286046999.8,N
1661654795.9,286047001.0,N
1661654815.7,286047002.6,N
1661654835.5,286047001.0,N
1661654855.4,286046999.9,N
1661654875.2,286047001.0,N
1661654895.1,286047001.2,N
1661654896.0,286047001.2,N
1661654915.8,286047000.2,N
1661654935.6,286046999.8,N
1661654955.5,286047003.9,Y
1661654975.3,286047002.0,P
1661654995.2,286046999.9,N
1661655015.9,286047002.2,N
1661655035.7,286047002.1,N
1661655055.6,286047000.2,N
1661655075.4,286047000.2,N
1661655095.2,286046998.2,N
1661655115.1,286047000.7,N
1661655116.0,286047000.7,N
1661655135.8,286046998.3,N
1661655155.7,286047001.0,N
1661655175.5,286046998.4,N
1661655195.3,286046998.5,N
1661655215.2,286047001.0,N
1661655235.9,286047000.7,N
1661655255.7,286046998.3,N
1661655275.6,286046998.4,N
1661655295.4,286046998.5,N
1661655315.2,286047000.0,N
1661655335.1,286046999.8,N
1661655336.0,286046999.8,N
1661655355.8,286047000.0,N
1661655375.7,286047000.7,N
1661655395.5,286046999.9,N
1661655415.3,286047000.2,N
1661655435.2,286047000.3,N
1661655455.0,286047000.5,N
1661655455.9,286047000.5,N
1661655475.8,286047000.3,N
1661655495.6,286047002.8,N
1661655515.4,286046999.8,N
1661655535.3,286047001.0,N
1661655555.1,286046998.1,N
1661655575.8,286047000.8,N
1661655595.7,286047000.5,N
